Flag for Canada Weather past 2 weeks in Regina, Saskatchewan, Canada

Now
16 °F

Ice fog.


Feels Like: 5 °F
Forecast: 14 / 22 °F
Wind: 8 mph from Northwest

Location: Regina Weather Station

Current Time: Jan 30, 2015 at 8:41:27 AM

Latest Report: Jan 30, 2015 at 8:00 AM


Visibility: 0 mi

Pressure: 30.28 "Hg

Humidity: 100%

Dew point: 16 °F

Location of ReginaLocation

Historic Weather in Regina — Graph

°F

Regina temperature yesterday

Maximum temperature yesterday: 21 °F (at 12:00 AM)
Minimum temperature yesterday: 12 °F (at 7:00 AM)
Average temperature yesterday: 15 °F

Past Weeks' High & Low Weather Summary

 TemperatureHumidityPressure
High39 °F (Jan 22, 8:00 PM)100% (Jan 15, 6:00 PM)30.61 "Hg (Jan 15, 6:00 PM)
Low7 °F (Jan 18, 7:00 AM)65% (Jan 17, 1:00 PM)29.43 "Hg (Jan 16, 6:00 PM)
Average26 °F90%29.98 "Hg
* Reported Jan 15 7:00 AM — Jan 30 7:00 AM, Regina, Weather by CustomWeather, © 2014

Note: Actual official high and low records may vary slightly from our data, if they occured in-between our weather recording intervals... More about our weather records

Advertising

Regina weather history for previous 24 hours

 ConditionsComfort  
Time TempWeatherWind HumidityBarometerVisibility
7:00 AM
Jan 30
12 °FLow clouds.No wind92%30.27 "Hg10 mi
6:47 AM10 °FLow clouds.No wind92%30.28 "Hg15 mi
6:00 AM10 °FPassing clouds.7 mph92%30.27 "Hg15 mi
5:00 AM10 °FPassing clouds.7 mph92%30.27 "Hg15 mi
4:00 AM12 °FPassing clouds.8 mph92%30.28 "Hg15 mi
3:00 AM14 °FClear.10 mph92%30.29 "Hg15 mi
2:00 AM14 °FClear.12 mph92%30.30 "Hg15 mi
1:00 AM16 °FPassing clouds.14 mph93%30.31 "Hg15 mi
12:00 AM18 °FPartly cloudy.17 mph93%30.34 "Hg15 mi
11:00 PM
Jan 29
18 °FPassing clouds.14 mph93%30.36 "Hg15 mi
10:00 PM16 °FPassing clouds.15 mph93%30.38 "Hg15 mi
9:00 PM16 °FPassing clouds.14 mph93%30.41 "Hg15 mi
8:00 PM16 °FPassing clouds.14 mph93%30.44 "Hg15 mi
7:00 PM14 °FPassing clouds.14 mph92%30.45 "Hg15 mi
6:00 PM14 °FPassing clouds.14 mph85%30.47 "Hg15 mi
5:00 PM14 °FMostly cloudy.12 mph85%30.50 "Hg15 mi
4:51 PM14 °FCloudy.12 mph85%30.50 "Hg15 mi
4:00 PM14 °FOvercast.10 mph85%30.53 "Hg15 mi
3:00 PM14 °FSnow flurries. Overcast.10 mph85%30.54 "Hg15 mi
2:00 PM14 °FSnow flurries. Partly sunny.7 mph85%30.57 "Hg12 mi
1:00 PM14 °FSnow flurries. Partly sunny.7 mph85%30.58 "Hg10 mi
12:00 PM14 °FSnow flurries. Broken clouds.6 mph85%30.60 "Hg10 mi
11:00 AM14 °FSnow flurries. Broken clouds.No wind79%30.61 "Hg8 mi
10:00 AM12 °FLight snow. Ice fog.5 mph92%30.60 "Hg1 mi
9:00 AM12 °FLight snow. Low clouds.3 mph85%30.60 "Hg8 mi
8:00 AM12 °FLight snow. Low clouds.9 mph85%30.60 "Hg15 mi
Weather by CustomWeather, © 2014

See weather overviewHow to use our weather pages